EW1448 Weather Reports


Display with metric or nautical units.
time (UTC)temp
F
wind
direction
speed
MPH
gust
MPH
rain 1hr
in
rain 24hr
in
rain mn
in
humidity
%
barometer
mb
20240529183026 88 181 3.0 8.0 0.00 0.00 0.00 11 1017.4
20240529181541 87 61 2.0 7.0 0.00 0.00 0.00 12 1017.6
20240529180031 86 63 1.0 5.0 0.00 0.00 0.00 13 1017.9
20240529174532 85 60 2.0 6.0 0.00 0.00 0.00 12 1018.0
20240529173040 83 86 1.0 5.0 0.00 0.00 0.00 14 1018.3
20240529171604 82 103 3.0 6.0 0.00 0.00 0.00 15 1018.3
20240529170031 81 127 2.0 6.0 0.00 0.00 0.00 16 1018.5
20240529164607 80 5 1.0 5.0 0.00 0.00 0.00 16 1018.6
20240529163039 79 351 2.0 6.0 0.00 0.00 0.00 16 1018.5
20240529161541 78 18 2.0 6.0 0.00 0.00 0.00 17 1018.5
20240529160035 76 13 2.0 5.0 0.00 0.00 0.00 18 1018.6
20240529154551 75 343 3.0 6.0 0.00 0.00 0.00 18 1018.6
20240529153038 74 33 3.0 8.0 0.00 0.00 0.00 20 1018.7
20240529151605 73 23 2.0 6.0 0.00 0.00 0.00 21 1018.7
20240529150032 72 8 3.0 6.0 0.00 0.00 0.00 23 1018.8
20240529141603 71 58 1.0 2.0 0.00 0.00 0.00 21 1018.5
20240529140029 70 60 0.0 2.0 0.00 0.00 0.00 23 1018.3
20240529134529 69 206 0.0 1.0 0.00 0.00 0.00 22 1018.3
20240529133035 66 283 0.0 1.0 0.00 0.00 0.00 25 1018.1
20240529131538 62 283 0.0 0.0 0.00 0.00 0.00 27 1018.1
20240529130030 57 284 0.0 1.0 0.00 0.00 0.00 30 1017.9